AAY227 KCAK-KSAV

Flight info

Callsign AAY227
Flight time N/A
Altitude 38000
Route DCT CTW DCT JPU DCT HVQ J85 SPA/N0436F370 DCT CAE/N0441F380 DCT CANTR DCT PLZZZ DCT
Aircraft A319/M-SDE3FGHIRWY/LB1

Departure

Time 2026-04-16 22:12
Airport Akron Canton Regional Airport (KCAK)

Arrival

Time N/A
Airport Savannah Hilton Head International Airport (KSAV)
Time Latitude Longitude Altitude Speed Heading
2026-04-16 21:53 40.91409 -81.43750 1223 ft 0 kts 93°
2026-04-16 22:04 40.91409 -81.43762 1223 ft 4 kts 95°
2026-04-16 22:04 40.91412 -81.43796 1223 ft 4 kts 92°
2026-04-16 22:05 40.91409 -81.43831 1223 ft 4 kts 77°
2026-04-16 22:05 40.91404 -81.43864 1223 ft 4 kts 71°
2026-04-16 22:05 40.91400 -81.43878 1223 ft 0 kts 68°
2026-04-16 22:07 40.91400 -81.43876 1223 ft 1 kts 65°
2026-04-16 22:08 40.91435 -81.43896 1223 ft 17 kts 329°
2026-04-16 22:08 40.91587 -81.43896 1223 ft 24 kts 24°
2026-04-16 22:08 40.91694 -81.43742 1223 ft 23 kts 53°
2026-04-16 22:08 40.91790 -81.43610 1223 ft 16 kts 49°
2026-04-16 22:09 40.91846 -81.43552 1223 ft 16 kts 31°
2026-04-16 22:09 40.91951 -81.43478 1223 ft 8 kts 26°
2026-04-16 22:09 40.91969 -81.43473 1223 ft 2 kts 347°
2026-04-16 22:09 40.91983 -81.43486 1223 ft 0 kts 327°
2026-04-16 22:10 40.92001 -81.43501 1223 ft 7 kts 324°
2026-04-16 22:11 40.92006 -81.43587 1222 ft 9 kts 231°
2026-04-16 22:11 40.92001 -81.43594 1222 ft 1 kts 225°
2026-04-16 22:11 40.91869 -81.43772 1220 ft 67 kts 227°
2026-04-16 22:11 40.91367 -81.44481 1221 ft 138 kts 227°
2026-04-16 22:12 40.90607 -81.45551 1483 ft 171 kts 227°
2026-04-16 22:12 40.89708 -81.46749 1976 ft 185 kts 227°
2026-04-16 22:12 40.88628 -81.47644 2661 ft 195 kts 196°
2026-04-16 22:12 40.87238 -81.47217 3266 ft 214 kts 162°
2026-04-16 22:13 40.85741 -81.46688 3689 ft 227 kts 185°
2026-04-16 22:13 40.84088 -81.46791 4234 ft 248 kts 189°
2026-04-16 22:13 40.82325 -81.47020 5120 ft 259 kts 191°
2026-04-16 22:13 40.80520 -81.47229 6138 ft 265 kts 190°
2026-04-16 22:14 40.78655 -81.47362 7054 ft 271 kts 189°
2026-04-16 22:14 40.76729 -81.47445 8080 ft 274 kts 188°
2026-04-16 22:14 40.74851 -81.47487 9114 ft 277 kts 187°
2026-04-16 22:15 40.74598 -81.47491 9230 ft 278 kts 187°
2026-04-16 22:15 40.72635 -81.47519 10210 ft 282 kts 186°
2026-04-16 22:15 40.70604 -81.47537 10616 ft 302 kts 186°
2026-04-16 22:15 40.68445 -81.47554 11198 ft 315 kts 186°
2026-04-16 22:16 40.66239 -81.47562 11999 ft 320 kts 186°
2026-04-16 22:16 40.64001 -81.47562 12872 ft 323 kts 187°
2026-04-16 22:16 40.61744 -81.47558 13752 ft 326 kts 187°
2026-04-16 22:16 40.59467 -81.47563 14511 ft 329 kts 187°
2026-04-16 22:17 40.57172 -81.47592 15237 ft 334 kts 186°
2026-04-16 22:17 40.54841 -81.47593 16066 ft 335 kts 187°
2026-04-16 22:17 40.52504 -81.47591 16824 ft 338 kts 186°
2026-04-16 22:17 40.50151 -81.47591 17548 ft 340 kts 186°
2026-04-16 22:18 40.47773 -81.47592 18262 ft 343 kts 186°
2026-04-16 22:18 40.45384 -81.47596 18884 ft 345 kts 186°
2026-04-16 22:18 40.42968 -81.47596 19510 ft 348 kts 186°
2026-04-16 22:18 40.40542 -81.47601 20159 ft 350 kts 187°
2026-04-16 22:19 40.38102 -81.47611 20806 ft 352 kts 187°
2026-04-16 22:19 40.35641 -81.47620 21411 ft 355 kts 187°
2026-04-16 22:19 40.33064 -81.47620 22049 ft 357 kts 186°
2026-04-16 22:19 40.30645 -81.47623 22657 ft 360 kts 187°
2026-04-16 22:20 40.28133 -81.47631 23290 ft 362 kts 187°
2026-04-16 22:20 40.25632 -81.47639 23825 ft 365 kts 187°
2026-04-16 22:20 40.23046 -81.47633 24338 ft 369 kts 185°
2026-04-16 22:20 40.20501 -81.47343 24820 ft 374 kts 182°
2026-04-16 22:21 40.17903 -81.47005 25273 ft 377 kts 182°
2026-04-16 22:21 40.15250 -81.46659 25740 ft 380 kts 182°
2026-04-16 22:21 40.12612 -81.46308 26281 ft 381 kts 182°
2026-04-16 22:21 40.09973 -81.45962 26768 ft 382 kts 183°
2026-04-16 22:22 40.07322 -81.45618 27252 ft 384 kts 183°
2026-04-16 22:22 40.04660 -81.45277 27713 ft 386 kts 184°
2026-04-16 22:22 40.01981 -81.44933 28177 ft 387 kts 184°
2026-04-16 22:22 39.99258 -81.44580 28639 ft 389 kts 184°
2026-04-16 22:23 39.98246 -81.44448 28805 ft 389 kts 184°
2026-04-16 22:23 39.96592 -81.44215 29034 ft 391 kts 184°
2026-04-16 22:23 39.93876 -81.43845 29465 ft 394 kts 184°
2026-04-16 22:23 39.91144 -81.43494 29900 ft 394 kts 185°
2026-04-16 22:24 39.88376 -81.43145 30293 ft 396 kts 185°
2026-04-16 22:24 39.86519 -81.42915 30531 ft 396 kts 185°
2026-04-16 22:24 39.83762 -81.42500 30837 ft 400 kts 184°
2026-04-16 22:24 39.80987 -81.42110 31147 ft 402 kts 184°
2026-04-16 22:25 39.78190 -81.41767 31484 ft 404 kts 185°
2026-04-16 22:25 39.75350 -81.41439 31886 ft 404 kts 185°
2026-04-16 22:25 39.72549 -81.41106 32384 ft 403 kts 185°
2026-04-16 22:25 39.69763 -81.40764 32828 ft 401 kts 185°
2026-04-16 22:26 39.66987 -81.40408 33267 ft 401 kts 185°
2026-04-16 22:26 39.64214 -81.40047 33698 ft 400 kts 185°
2026-04-16 22:26 39.61448 -81.39690 34111 ft 399 kts 185°
2026-04-16 22:26 39.58694 -81.39337 34485 ft 399 kts 185°
2026-04-16 22:27 39.55932 -81.38983 34835 ft 398 kts 185°
2026-04-16 22:27 39.53170 -81.38623 35147 ft 399 kts 185°
2026-04-16 22:27 39.50411 -81.38262 35444 ft 399 kts 185°
2026-04-16 22:27 39.47647 -81.37910 35708 ft 400 kts 185°
2026-04-16 22:28 39.44901 -81.37781 35997 ft 390 kts 193°
2026-04-16 22:28 39.42242 -81.38215 36280 ft 380 kts 201°
2026-04-16 22:28 39.39709 -81.39094 36552 ft 377 kts 204°
2026-04-16 22:28 39.37155 -81.40039 36886 ft 377 kts 204°
2026-04-16 22:29 39.34632 -81.40967 37159 ft 378 kts 204°
2026-04-16 22:29 39.32104 -81.41895 37425 ft 378 kts 204°
2026-04-16 22:29 39.29569 -81.42825 37681 ft 379 kts 204°
2026-04-16 22:29 39.27027 -81.43755 37904 ft 380 kts 204°
2026-04-16 22:30 39.21938 -81.45634 37956 ft 379 kts 204°
2026-04-16 22:30 39.16853 -81.47476 37952 ft 380 kts 204°
2026-04-16 22:31 39.11762 -81.49331 37944 ft 380 kts 204°
2026-04-16 22:31 39.06637 -81.51203 37938 ft 380 kts 204°
2026-04-16 22:32 39.01551 -81.53035 37910 ft 380 kts 204°
2026-04-16 22:32 38.96461 -81.54882 37920 ft 380 kts 204°
2026-04-16 22:33 38.91374 -81.56728 37926 ft 380 kts 205°
2026-04-16 22:33 38.86286 -81.58561 37914 ft 379 kts 204°
2026-04-16 22:34 38.81164 -81.60421 37887 ft 380 kts 205°